Weather observations for the past three days for
Goodyear Municipal
| Date | Time (mst) | Wind (kph) | Vis. (km) | Weather | Sky Cond. | Temperature (ºC) | Relative Humidity | Wind Chill (°C) | Heat Index (°C) | Pressure | Precipitation (cm) | ||||||
|---|---|---|---|---|---|---|---|---|---|---|---|---|---|---|---|---|---|
| Air | Dwpt | 6 hour | altimeter (cm) | sea level (mb) | 1 hr | 3 hr | 6 hr | ||||||||||
| Max. | Min. | ||||||||||||||||
| 10 | 11:47 | W 11 | 16.09 | Clear | SKC | 37 | -2 | 8% | 34 | 75.84 | 0.0 | ||||||
| 10 | 10:47 | Vrbl 9 | 16.09 | Clear | SKC | 36 | -2 | 9% | 33 | 75.87 | 0.0 | ||||||
| 10 | 09:47 | Vrbl 7 | 16.09 | Clear | SKC | 32 | -1 | 12% | 30 | 75.87 | 0.0 | ||||||
| 10 | 08:47 | Vrbl 7 | 16.09 | Clear | SKC | 31 | -2 | 12% | 29 | 75.84 | 0.0 | ||||||
| 10 | 07:47 | Vrbl 6 | 16.09 | A Few Clouds | FEW250 | 28 | -1 | 15% | 27 | 75.84 | 0.0 | ||||||
| 10 | 06:47 | Vrbl 9 | 16.09 | A Few Clouds | FEW250 | 25 | -2 | 17% | 25 | 75.79 | 0.0 | ||||||
| 10 | 05:47 | Vrbl 7 | 16.09 | Clear | SKC | 24 | -3 | 16% | 24 | 75.74 | 0.0 | ||||||
| 09 | 20:47 | W 17 | 16.09 | Clear | SKC | 34 | -1 | 11% | 31 | 75.51 | 0.0 | ||||||
| 09 | 19:47 | SW 20 | 16.09 | Clear | SKC | 36 | -2 | 9% | 33 | 75.46 | 0.0 | ||||||
| 09 | 18:47 | SW 22 | 16.09 | Clear | SKC | 38 | -3 | 7% | 35 | 75.44 | 0.0 | ||||||
| 09 | 17:47 | W 24 | 16.09 | Clear | SKC | 39 | -2 | 7% | 36 | 75.44 | 0.0 | ||||||
| 09 | 16:47 | Vrbl 9 | 16.09 | Clear | SKC | 39 | -2 | 7% | 36 | 75.46 | 0.0 | ||||||
| 09 | 15:47 | Vrbl 9 | 16.09 | Clear | SKC | 39 | -1 | 8% | 36 | 75.49 | 0.0 | ||||||
| 09 | 14:47 | SW 15 G 28 | 16.09 | Clear | SKC | 39 | 0 | 9% | 36 | 75.57 | 0.0 | ||||||
| 09 | 13:47 | W 11 | 16.09 | Clear | SKC | 38 | 2 | 10% | 35 | 75.64 | 0.0 | ||||||
| 09 | 12:47 | W 11 | 16.09 | Clear | SKC | 37 | 0 | 10% | 34 | 75.72 | 0.0 | ||||||
| 09 | 11:47 | W 17 | 16.09 | Clear | SKC | 36 | -1 | 9% | 33 | 75.77 | 0.0 | ||||||
| 09 | 10:47 | SW 7 | 16.09 | Clear | SKC | 34 | 2 | 13% | 32 | 75.82 | 0.0 | ||||||
| 09 | 09:47 | Vrbl 7 | 16.09 | Clear | SKC | 33 | 2 | 14% | 31 | 75.82 | 0.0 | ||||||
| 09 | 08:47 | SE 7 | 16.09 | Clear | SKC | 30 | 3 | 18% | 28 | 75.82 | 0.0 | ||||||
| 09 | 07:47 | Vrbl 9 | 16.09 | Clear | SKC | 27 | 4 | 23% | 26 | 75.82 | 0.0 | ||||||
| 09 | 06:47 | SW 11 | 16.09 | Clear | SKC | 27 | 1 | 18% | 26 | 75.77 | 0.0 | ||||||
| 09 | 05:47 | SW 15 | 16.09 | Clear | SKC | 25 | 1 | 21% | 25 | 75.72 | 0.0 | ||||||
| 08 | 20:47 | W 11 | 16.09 | Clear | SKC | 32 | 3 | 16% | 30 | 75.57 | 0.0 | ||||||
| 08 | 19:47 | SW 20 | 16.09 | Clear | SKC | 34 | 3 | 14% | 32 | 75.51 | 0.0 | ||||||
| 08 | 18:47 | SW 20 | 16.09 | Clear | SKC | 37 | 3 | 12% | 34 | 75.46 | 0.0 | ||||||
| 08 | 17:47 | SW 24 | 16.09 | A Few Clouds | FEW250 | 38 | 2 | 10% | 35 | 75.49 | 0.0 | ||||||
| 08 | 16:47 | SW 26 | 16.09 | A Few Clouds | FEW250 | 38 | 2 | 10% | 35 | 75.51 | 0.0 | ||||||
| 08 | 15:47 | SW 22 G 37 | 16.09 | A Few Clouds | FEW250 | 38 | 3 | 11% | 35 | 75.57 | 0.0 | ||||||
| 08 | 14:47 | SW 28 | 16.09 | A Few Clouds | FEW250 | 37 | 4 | 13% | 34 | 75.67 | 0.0 | ||||||
| 08 | 13:47 | SW 24 G 33 | 16.09 | A Few Clouds | FEW250 | 36 | 5 | 14% | 34 | 75.74 | 0.0 | ||||||
| 08 | 12:47 | SW 19 | 16.09 | Clear | SKC | 34 | 4 | 15% | 32 | 75.82 | 0.0 | ||||||
| 08 | 11:47 | SW 7 | 16.09 | Clear | SKC | 32 | 4 | 17% | 30 | 75.87 | 0.0 | ||||||
| 08 | 10:47 | Vrbl 6 | 16.09 | Clear | SKC | 31 | 4 | 18% | 29 | 75.95 | 0.0 | ||||||
| 08 | 09:47 | Vrbl 7 | 16.09 | Clear | SKC | 28 | 4 | 21% | 27 | 75.97 | 0.0 | ||||||
| 08 | 08:47 | Vrbl 7 | 16.09 | Clear | SKC | 27 | 4 | 23% | 26 | 75.97 | 0.0 | ||||||
| 08 | 07:47 | Vrbl 11 | 16.09 | Clear | SKC | 24 | 3 | 25% | 25 | 75.97 | 0.0 | ||||||
| 08 | 06:47 | Vrbl 9 | 16.09 | Clear | SKC | 22 | 3 | 29% | 75.95 | 0.0 | |||||||
| 08 | 05:47 | Vrbl 9 | 16.09 | Clear | SKC | 21 | 2 | 29% | 75.87 | 0.0 | |||||||
| 07 | 20:47 | SW 19 | 16.09 | Clear | SKC | 31 | -4 | 10% | 29 | 75.72 | 0.0 | ||||||
| 07 | 19:47 | SW 11 | 16.09 | Clear | SKC | 31 | -3 | 11% | 29 | 75.67 | 0.0 | ||||||
| 07 | 18:47 | SW 17 | 16.09 | Clear | SKC | 33 | -3 | 10% | 31 | 75.62 | 0.0 | ||||||
| 07 | 17:47 | SW 19 | 16.09 | Clear | SKC | 34 | -4 | 8% | 31 | 75.62 | 0.0 | ||||||
| 07 | 16:47 | SW 19 | 16.09 | Clear | SKC | 34 | -4 | 8% | 31 | 75.64 | 0.0 | ||||||
| 07 | 15:47 | W 20 G 35 | 16.09 | Clear | SKC | 35 | -4 | 8% | 32 | 75.67 | 0.0 | ||||||
| 07 | 14:47 | Vrbl 9 | 16.09 | Clear | SKC | 35 | -6 | 7% | 32 | 75.72 | 0.0 | ||||||
| 07 | 13:47 | SW 13 | 16.09 | Clear | SKC | 34 | -6 | 7% | 31 | 75.77 | 0.0 | ||||||
| 07 | 12:47 | Vrbl 9 | 16.09 | Clear | SKC | 33 | -4 | 9% | 31 | 75.87 | 0.0 | ||||||
| Date | Time (mst) | Wind (kph) | Vis. (km) | Weather | Sky Cond. | Air | Dwpt | Max. | Min. | Relative Humidity | Wind Chill (°C) | Heat Index (°C) | altimeter (cm) | sea level (mb) | 1 hr | 3 hr | 6 hr |
| 6 hour | |||||||||||||||||
| Temperature (ºC) | Pressure | Precipitation (cm) | |||||||||||||||